Lid_Strength_Index
0 1 2 2 0 2 1 0 0 1 1 1 1 1 2 4 4 8 11 9 11 16 16 14 14 16 18 17 20 20 19 20 22 21 22 25 28 27 27 25 24 25 27 30 33 33 27 19 19 20 19 18 17 18
1 0 2 3 0 0 0 0 0 0 1 1 0 0 0 2 4 7 12 9 11 15 17 15 16 16 15 14 17 17 18 19 18 21 24 25 28 28 27 27 22 23 23 24 24 22 20 17 21 22 20 19 18 18
0 2 3 3 0 1 1 1 1 0 0 0 0 1 2 3 4 5 10 11 13 16 17 16 17 16 14 15 13 16 18 16 18 17 20 21 25 24 27 26 26 24 26 24 23 21 20 20 22 20 20 20 18 18
1 2 3 2 0 0 1 2 1 1 0 0 0 1 2 2 3 7 10 9 12 15 18 19 15 17 15 13 14 14 15 15 15 16 19 24 25 21 24 22 22 22 21 24 22 20 20 20 20 19 19 19 20 21
1 2 2 2 1 0 1 2 2 2 2 1 2 1 1 2 4 7 9 9 10 12 20 20 16 16 14 13 13 13 13 15 16 18 20 22 20 21 22 22 24 21 20 20 20 19 20 18 17 18 20 21 21 22
1 1 1 1 1 1 1 1 2 3 3 2 3 2 2 2 7 10 13 12 11 13 17 20 18 18 15 14 14 15 15 16 17 18 20 20 19 19 25 25 19 18 18 17 19 19 22 20 18 19 20 21 21 22
1 1 0 0 1 1 1 1 1 2 2 2 2 2 2 3 6 9 12 12 10 13 19 22 21 18 18 16 17 17 17 18 17 19 21 21 20 21 27 25 20 18 19 20 21 21 22 22 22 21 21 22 23 23
-0 -0 0 0 -0 0 0 0 1 2 2 2 3 2 3 4 6 11 10 8 10 15 16 21 23 19 17 18 20 17 19 18 20 21 24 23 21 24 23 23 22 20 21 22 20 23 21 21 22 24 24 25 28 27
-0 -0 0 -0 -0 -0 -0 -0 1 2 1 3 4 4 8 10 11 12 7 9 11 14 20 20 22 22 17 19 19 18 16 20 21 21 21 20 27 24 19 20 22 22 20 21 27 28 26 24 24 27 28 29 28 27
-0 -0 -0 -0 -0 -0 -0 -0 1 1 2 4 7 11 13 11 5 6 10 13 16 17 17 20 19 21 18 19 20 20 19 22 22 22 21 23 24 21 21 19 16 20 23 25 27 29 32 32 27 29 28 28 26 27
-0 -0 -0 -0 -0 -0 -0 -0 0 2 5 10 12 13 9 7 10 12 15 17 18 21 20 21 20 21 18 20 21 19 21 21 22 24 23 28 27 22 20 19 19 19 23 21 27 23 27 23 26 28 32 30 31 32
-0 -0 -0 -0 -0 -0 -0 -0 1 6 12 11 9 8 9 12 14 17 19 19 19 21 23 21 21 20 19 17 20 20 22 22 22 27 24 27 23 25 26 23 22 22 24 29 31 27 29 28 27 27 29 31 33 34
-0 -0 -0 -0 -0 -0 -0 1 1 1 5 10 11 13 13 17 19 18 21 25 29 28 25 21 21 20 20 18 21 21 22 24 24 25 25 23 25 28 28 28 30 29 29 31 33 33 32 35 34 32 34 39 36 38
-0 -0 -0 -0 -0 -0 -0 0 2 5 11 17 20 20 21 24 27 30 28 30 29 28 22 23 23 20 20 21 21 23 27 24 26 29 27 26 27 27 28 29 28 30 30 31 32 33 33 33 34 38 36 36 36 38
-0 -0 -0 -0 -0 -0 3 4 6 14 18 23 22 28 30 29 31 31 33 31 29 27 26 24 24 22 23 24 25 27 29 28 25 25 26 29 30 29 27 28 30 31 32 33 34 34 33 34 32 35 39 39 39 41
-0 -0 1 1 1 2 4 8 13 18 23 24 26 29 30 28 28 29 30 29 24 23 25 21 23 21 24 24 31 29 27 28 28 33 33 32 32 31 32 31 30 32 33 34 36 36 34 33 34 35 42 42 40 39
1 3 1 1 3 4 6 15 18 23 24 26 26 26 30 30 27 28 28 28 22 19 20 24 27 27 27 30 32 35 31 34 35 33 32 32 31 33 33 34 35 34 33 34 38 37 36 39 39 39 36 36 38 38
3 2 1 3 7 9 17 19 22 24 26 24 24 23 24 25 26 23 22 21 20 21 23 25 26 30 32 30 33 34 30 29 30 31 31 32 35 36 35 35 37 35 35 37 36 38 39 39 38 34 37 39 42 43
3 3 3 4 8 15 18 19 20 26 27 26 22 21 22 23 20 21 21 20 20 20 21 24 29 32 33 32 32 30 29 30 29 29 31 34 37 38 35 34 35 36 35 37 39 37 37 36 35 36 36 41 37 39
3 4 5 6 8 16 19 20 17 18 21 20 19 22 21 21 21 22 24 24 23 25 29 30 32 33 32 31 31 31 31 32 35 32 31 31 33 36 36 35 34 37 38 39 40 37 38 37 38 37 37 37 39 35
7 8 8 13 17 19 21 22 21 21 19 20 21 20 21 21 24 26 27 25 28 32 32 32 32 31 32 32 33 33 32 33 34 36 35 34 34 37 37 39 41 41 38 39 37 36 36 37 35 38 40 38 38 37
13 9 16 14 18 20 21 23 20 22 21 23 23 23 24 24 26 29 27 29 31 31 31 31 31 33 33 33 33 34 35 37 37 36 34 35 35 34 36 38 37 37 39 37 38 35 34 35 38 40 42 37 39 39
14 15 20 20 20 21 24 25 24 27 23 26 27 26 29 29 30 29 33 32 31 30 31 32 32 33 34 34 34 34 36 37 36 39 40 41 42 41 40 38 41 39 36 34 37 36 36 35 38 37 39 40 41 40
20 28 28 29 26 29 31 30 32 31 31 31 31 33 33 34 32 33 36 36 33 32 32 33 34 33 33 33 36 38 38 41 40 39 41 42 38 37 41 38 39 38 35 36 38 37 37 38 37 40 41 43 44 43
22 32 32 32 35 30 32 33 33 30 36 40 34 34 34 38 37 39 39 36 34 34 33 33 35 36 38 37 38 37 38 39 37 35 34 41 41 41 38 41 38 36 40 40 40 41 41 43 42 42 41 42 39 37
35 39 37 42 36 33 38 35 37 37 39 38 38 37 40 37 38 39 37 35 35 34 33 35 36 37 37 36 37 34 34 41 39 40 36 40 39 38 37 36 37 35 40 39 39 39 37 36 38 36 35 35 34 35
35 39 40 41 39 39 38 40 40 38 41 40 41 38 38 40 42 37 33 31 34 32 31 31 32 32 33 32 32 35 36 40 37 34 33 33 34 34 33 35 35 34 38 37 35 35 34 32 32 32 32 32 32 34
42 43 37 41 41 43 44 43 43 44 44 41 42 42 41 39 37 33 31 30 31 30 29 29 30 32 33 33 33 35 34 39 36 34 38 37 37 36 36 33 32 27 29 31 31 30 31 32 32 32 32 32 32 33
40 44 41 41 42 41 42 43 42 41 40 43 41 41 37 35 34 33 31 30 33 35 34 32 31 38 36 35 35 36 36 41 39 38 39 37 38 33 37 37 35 34 33 32 29 26 27 28 29 30 30 30 30 30
40 44 41 43 39 39 39 40 39 40 39 40 39 35 32 32 32 36 35 36 35 35 37 41 38 43 38 38 34 33 36 40 38 36 38 36 35 33 30 31 31 32 32 33 31 31 28 29 30 32 32 33 33 33
40 43 39 38 35 36 36 37 38 39 41 35 35 34 35 34 33 38 38 40 42 44 41 35 37 37 41 33 36 33 33 36 40 36 34 32 31 31 31 31 30 30 30 30 31 31 31 30 31 31 32 32 32 32
40 43 37 35 35 34 36 35 35 33 33 32 33 33 34 36 37 35 38 41 40 38 31 38 35 31 30 30 32 33 31 30 31 31 32 31 30 30 29 28 28 28 28 28 28 28 29 29 30 30 30 30 30 31
38 39 40 36 35 34 33 33 32 33 33 35 37 42 42 39 34 32 37 41 37 35 32 32 30 30 29 29 29 29 30 31 32 27 27 26 27 27 27 27 27 27 28 28 28 28 28 29 29 29 29 29 30 30